TimePST,TemperatureF,Dew PointF,Humidity,Sea Level PressureIn,VisibilityMPH,Wind Direction,Wind SpeedMPH,Gust SpeedMPH,PrecipitationIn,Events,Conditions,WindDirDegrees,DateUTC
12:53 AM,8.1,5.0,87,30.00,10.0,NNW,10.4,-,0.00,,Partly Cloudy,340,2012-12-19 08:53:00
1:53 AM,3.0,-0.9,84,30.06,10.0,Calm,Calm,-,0.02,,Partly Cloudy,0,2012-12-19 09:53:00
2:53 AM,-0.0,-2.9,88,30.10,10.0,NNE,6.9,-,0.02,,Clear,20,2012-12-19 10:53:00
3:53 AM,-11.0,-13.0,91,30.19,10.0,South,3.5,-,0.04,,Clear,190,2012-12-19 11:53:00
4:53 AM,-16.1,-18.0,91,30.25,10.0,Calm,Calm,-,0.07,,Clear,0,2012-12-19 12:53:00
5:53 AM,-14.1,-17.0,87,30.30,10.0,SSE,5.8,-,0.06,,Clear,160,2012-12-19 13:53:00
6:53 AM,-17.0,-20.0,86,30.36,10.0,South,8.1,-,0.05,,Clear,170,2012-12-19 14:53:00
7:53 AM,-13.0,-15.0,91,30.37,10.0,South,8.1,-,0.08,,Clear,180,2012-12-19 15:53:00
9:53 AM,-0.0,-4.0,83,30.39,10.0,South,8.1,-,0.01,,Clear,180,2012-12-19 17:53:00
10:53 AM,3.9,-0.0,84,30.38,10.0,SSE,9.2,-,N/A,,Clear,160,2012-12-19 18:53:00
11:53 AM,8.1,3.9,83,30.39,10.0,South,6.9,-,N/A,,Clear,180,2012-12-19 19:53:00
12:53 PM,10.0,3.9,76,30.41,10.0,South,10.4,-,N/A,,Clear,170,2012-12-19 20:53:00
1:53 PM,12.0,5.0,73,30.43,10.0,South,9.2,-,N/A,,Clear,190,2012-12-19 21:53:00
2:53 PM,10.0,3.0,73,30.47,10.0,SSW,11.5,-,N/A,,Clear,200,2012-12-19 22:53:00
3:53 PM,6.1,-0.0,76,30.53,10.0,South,12.7,-,N/A,,Clear,190,2012-12-19 23:53:00
4:53 PM,1.9,-2.0,83,30.60,10.0,South,11.5,-,N/A,,Clear,180,2012-12-20 00:53:00
5:53 PM,-2.2,-7.6,78,30.25,10.0,South,10.4,-,N/A,,Clear,170,2012-12-20 01:53:00
6:53 PM,-5.1,-9.9,80,30.68,10.0,South,11.5,-,N/A,,Clear,170,2012-12-20 02:53:00
7:53 PM,-0.9,-6.0,79,30.67,10.0,South,12.7,-,N/A,,Clear,180,2012-12-20 03:53:00
8:53 PM,-5.1,-9.0,83,30.66,10.0,South,10.4,-,N/A,,Clear,170,2012-12-20 04:53:00
9:53 PM,-7.1,-11.9,79,30.65,10.0,SSE,12.7,-,N/A,,Clear,160,2012-12-20 05:53:00
10:53 PM,-5.1,-11.0,76,30.62,10.0,South,11.5,-,N/A,,Clear,170,2012-12-20 06:53:00
11:53 PM,-7.1,-11.9,79,30.60,10.0,SSE,12.7,-,N/A,,Clear,160,2012-12-20 07:53:00